Location: Falconara Alta
(43.6167°N, 13.4000°E)
Time: 03:29:17
(UTC+00:00)

BREEZE-M DEB (TANK) - Pass Details

Date: 09 April 2020
Orbit: 317 x 11716 km, 49.7° (Epoch: 28 May)

Event Time Altitude Azimuth Distance (km) Brightness Sun altitude
Rises 19:37:30 0° 231° (SW) 4,570 8.2 -19.9°
Reaches altitude 10° 19:41:46 10° 227° (SW) 2,560 6.9 -20.5°
Enters shadow 19:45:37 39° 201° (SSW) 788 3.9 -21.1°
